Temperature
19 19 18 18 18 17 18 18 18 18 17 17 17 16 15 15 14 14 14 14 13 13 12 12 12 11 11 11 11 11 11 11 11 11 11 11 12 12 12 12 12 12 12 12
19 18 18 18 18 17 17 17 17 17 17 18 16 16 16 15 15 15 14 14 13 13 13 12 12 12 11 11 11 11 11 11 11 11 11 11 11 11 11 12 12 12 12 12
20 19 18 19 20 18 18 18 18 18 18 18 17 16 16 15 15 15 14 14 14 13 13 12 12 12 11 11 11 11 11 11 11 11 11 11 11 11 11 11 11 12 12 12
20 20 20 21 19 19 19 19 19 18 18 17 17 16 15 15 15 15 14 14 14 13 13 13 12 12 12 11 11 11 11 10 10 11 11 11 11 11 11 11 11 11 11 11
20 21 21 20 19 19 18 19 19 19 18 17 16 16 16 15 15 15 14 14 14 13 13 13 13 12 12 12 11 11 11 10 10 10 11 11 11 11 11 11 11 11 11 11
20 20 21 21 20 19 19 19 20 19 18 17 17 18 18 16 15 14 14 14 14 14 13 13 13 12 12 12 11 11 11 11 10 11 11 11 11 10 10 10 10 10 10 11
20 20 22 21 18 18 19 21 20 19 18 17 17 19 17 15 15 14 14 14 14 14 13 13 13 13 12 12 11 11 11 11 11 11 10 10 10 10 10 10 10 10 10 10
20 20 21 18 18 19 21 20 19 18 18 17 17 16 15 15 15 14 14 14 14 14 14 13 13 13 12 12 11 11 11 11 11 11 11 10 10 10 10 10 10 10 10 10
21 22 20 18 19 19 19 19 19 18 18 17 17 16 15 15 15 15 14 14 14 14 14 13 13 13 12 12 12 11 11 11 11 11 11 10 10 10 10 10 10 10 10 10
20 21 19 17 18 18 18 19 18 18 17 17 16 16 16 15 15 15 15 15 15 14 14 14 13 13 12 12 12 11 11 11 11 11 10 10 10 10 10 10 9 9 9 9
21 22 19 17 17 18 17 17 17 17 17 17 17 16 16 16 15 15 15 15 15 14 14 14 13 13 13 12 12 11 11 11 11 11 10 10 10 10 10 10 10 10 9 9
22 23 22 21 19 18 17 17 17 17 17 16 16 16 16 16 15 15 15 15 15 15 14 14 14 13 13 13 12 12 12 11 11 11 10 10 10 10 10 10 10 10 10 10
22 20 20 20 19 19 18 18 17 17 17 16 16 16 16 16 15 15 15 15 15 15 15 14 14 14 13 13 13 12 12 11 11 11 10 10 10 10 10 10 10 10 10 10
19 19 19 19 19 19 18 18 17 17 17 17 16 16 16 16 15 15 15 15 15 15 15 14 14 14 14 13 13 12 12 12 11 11 11 11 10 10 10 10 10 9 10 10
19 19 19 19 19 18 18 17 17 17 17 16 16 16 16 16 16 16 15 15 15 15 15 15 14 14 14 13 13 12 12 12 12 11 11 11 11 11 10 10 10 10 10 10
19 19 18 18 18 18 18 17 17 17 17 16 16 16 16 16 16 15 15 16 15 15 15 15 14 14 14 14 13 13 12 12 12 12 11 11 11 11 11 10 10 10 10 10
18 18 18 18 18 18 18 17 17 17 17 16 16 16 16 16 15 15 16 16 15 15 15 15 15 15 14 14 13 13 13 12 12 12 12 11 11 11 11 11 11 10 10 10
20 20 20 20 19 18 18 18 17 17 17 16 16 16 15 15 15 16 15 15 15 15 15 15 15 15 14 14 14 13 13 12 12 12 12 12 12 11 11 11 11 11 10 11
18 19 19 19 19 18 18 18 17 17 17 16 16 16 15 15 15 15 15 15 15 15 15 15 15 15 14 14 14 14 13 13 13 12 12 12 12 12 12 11 11 11 11 11
16 17 18 18 19 18 18 18 17 17 17 16 16 15 15 15 15 15 15 15 15 15 15 15 15 14 14 14 14 13 13 13 13 12 12 12 12 12 12 12 12 11 11 11
14 15 16 17 18 18 18 18 17 17 17 16 16 15 15 15 15 15 15 15 15 15 15 15 14 14 14 14 13 13 13 13 13 12 12 12 12 12 12 12 12 12 12 11
12 13 14 15 16 17 17 17 17 17 17 16 16 15 15 15 15 15 15 15 15 15 15 14 14 14 14 13 13 13 13 13 13 12 12 12 12 12 12 12 12 12 12 12
11 12 13 14 15 15 16 16 17 17 16 16 16 15 15 15 15 15 15 15 15 15 15 14 14 14 14 13 13 13 13 12 12 12 13 13 13 13 12 12 12 12 12 12
9 10 11 12 13 14 14 15 15 16 16 16 16 15 15 15 15 15 15 15 15 15 14 14 14 14 13 13 13 12 12 12 12 12 12 13 13 13 13 13 13 13 13 12
7 8 9 10 11 11 12 13 14 14 15 15 15 15 15 15 15 15 15 15 14 14 14 14 14 13 13 13 12 12 12 12 12 12 12 12 13 13 13 13 13 13 13 13
6 6 7 7 8 9 10 11 12 13 13 14 14 14 14 15 15 14 14 14 14 14 14 14 13 13 13 13 12 12 12 12 12 12 12 12 12 12 13 13 13 13 13 13
5 5 6 6 7 7 8 9 9 10 11 12 13 13 13 14 14 14 14 14 14 14 13 13 13 13 13 13 13 12 12 12 12 12 12 12 12 12 12 13 13 13 13 13
Wind_Speed
5 4 2 2 3 4 3 2 2 1 2 1 0 1 2 4 5 7 9 10 10 10 10 10 11 11 11 11 11 10 11 11 11 11 11 11 11 11 11 10 11 10 9 9
4 3 3 5 6 6 5 4 4 4 4 3 2 1 1 2 4 6 8 9 9 9 9 10 10 10 10 10 10 10 11 11 11 11 11 11 11 11 11 11 11 11 10 9
3 3 4 7 9 10 6 7 6 6 4 6 5 3 2 1 3 5 6 7 8 9 8 8 8 9 9 9 9 9 10 10 10 10 11 11 10 10 10 10 10 10 10 10
2 3 4 3 3 7 8 8 9 6 5 7 5 3 3 3 3 4 5 6 7 7 7 7 7 7 7 7 8 9 9 10 10 10 10 10 10 10 10 9 9 9 10 10
3 4 5 3 6 7 8 7 12 11 9 8 6 5 5 5 3 3 4 5 6 6 6 6 6 6 6 7 7 8 8 9 9 9 10 10 10 10 9 8 9 9 9 10
4 4 3 2 8 8 6 6 11 14 12 11 9 6 4 4 3 2 3 4 5 5 5 5 5 5 5 6 7 7 7 7 8 8 9 9 9 8 8 7 8 8 9 10
7 5 5 5 10 10 6 1 12 15 14 13 11 4 5 4 3 2 2 3 4 4 4 4 4 4 5 5 6 6 5 5 6 7 8 8 8 7 7 7 8 8 9 9
5 6 4 11 12 10 4 4 11 14 14 13 10 6 5 4 3 2 2 2 3 3 3 3 3 3 4 5 4 4 4 5 5 6 6 6 7 8 8 8 8 8 8 9
7 5 2 14 10 8 4 7 10 14 14 13 12 10 8 6 4 3 2 1 2 2 2 2 2 3 4 4 3 3 4 4 5 5 6 6 7 7 7 7 7 7 7 7
7 10 9 13 12 9 8 8 10 13 14 14 13 11 10 7 5 4 3 1 1 1 1 2 2 2 2 2 1 2 3 4 4 4 5 6 5 6 7 7 7 7 7 6
9 8 6 11 17 15 12 10 11 13 14 15 13 12 11 8 7 5 4 2 2 1 1 0 1 1 2 1 1 2 2 3 3 3 3 4 5 5 6 7 6 6 6 6
7 7 7 6 13 18 17 15 14 15 15 15 14 12 11 9 7 6 5 4 3 2 2 1 1 2 2 2 2 1 1 2 1 1 1 1 2 3 4 4 5 6 7 7
4 3 6 3 6 16 19 18 16 17 17 16 14 12 11 9 8 7 7 6 5 3 3 2 2 2 2 3 3 2 1 2 2 1 1 0 1 1 2 3 4 4 5 6
9 6 6 7 7 13 17 18 17 17 17 16 14 13 12 10 9 9 8 7 6 5 4 4 3 3 3 4 4 3 2 2 3 2 2 1 0 1 1 2 1 2 4 4
14 13 9 6 8 12 15 16 17 17 17 16 14 14 13 12 11 10 9 7 7 6 6 5 5 4 4 4 5 4 4 3 3 3 3 3 2 2 1 1 1 1 1 3
12 14 12 11 11 13 16 18 19 19 18 18 16 15 15 13 11 10 9 9 9 8 7 7 6 5 5 5 5 4 4 3 4 4 4 4 4 3 2 2 1 1 0 0
11 13 15 17 16 16 18 19 19 19 19 19 18 17 15 13 12 11 11 10 10 8 7 7 6 6 6 6 6 5 5 5 7 6 5 5 4 4 4 3 3 2 1 1
16 15 15 17 17 17 18 19 19 19 19 19 18 17 16 16 15 14 12 11 10 9 9 8 7 7 7 7 6 5 5 6 6 6 5 5 5 5 5 4 4 4 3 4
15 15 15 15 15 15 16 17 18 18 18 18 18 18 18 17 15 14 12 12 12 11 10 9 9 9 9 8 6 6 6 6 6 6 6 6 6 6 6 6 5 5 4 4
12 13 13 13 13 13 14 14 15 16 17 17 18 18 18 17 15 14 13 13 11 9 8 8 9 10 9 8 7 6 7 7 7 7 6 6 7 7 7 6 6 6 6 6
10 11 12 12 12 12 12 13 13 15 16 17 18 18 18 17 16 14 13 12 12 11 9 9 9 8 8 7 9 7 7 7 7 7 7 7 7 7 7 7 7 7 7 7
10 9 9 10 10 11 10 11 12 14 15 16 17 17 17 16 15 14 14 11 9 10 9 9 9 9 9 8 8 8 7 7 7 7 7 7 7 7 7 8 7 7 7 7
11 9 8 7 8 9 9 9 11 12 14 15 16 16 16 14 12 12 12 10 9 11 9 8 9 10 11 9 9 9 9 9 8 7 7 7 7 7 7 8 7 7 7 7
13 12 9 7 5 5 6 7 8 8 10 11 12 13 13 11 10 10 9 7 9 11 9 9 11 11 12 9 9 9 9 9 8 8 8 7 7 8 8 8 8 7 8 9
15 14 12 10 6 4 4 3 4 5 6 6 8 9 8 8 8 7 7 8 10 10 8 9 12 13 11 10 10 10 9 9 8 7 7 8 8 8 8 8 8 8 8 8
14 12 11 11 10 8 6 4 2 1 2 3 4 4 5 5 5 5 5 7 9 9 8 7 8 10 10 10 10 10 9 9 8 9 9 8 9 9 8 8 10 9 8 8
12 11 10 10 11 11 9 7 5 4 2 1 1 2 3 3 4 5 5 5 6 7 7 7 7 8 9 9 9 10 9 9 9 9 9 9 8 8 9 10 9 8 8 8
Wind_Direction
96 108 149 191 201 210 240 277 264 188 206 195 111 7 354 353 359 8 13 13 13 11 15 16 18 19 21 22 21 22 25 28 27 28 32 33 33 33 36 37 38 40 42 44
156 172 225 246 228 219 226 227 222 212 217 181 179 210 263 360 3 5 8 8 8 10 12 13 15 15 18 20 23 26 29 29 28 29 31 32 33 34 36 37 37 37 38 39
194 194 256 254 223 210 213 210 209 214 186 171 192 204 229 318 342 353 358 359 2 4 6 7 10 10 14 17 20 27 32 32 30 30 31 32 34 35 35 37 39 38 37 38
235 227 252 101 129 200 216 219 213 215 185 189 197 202 228 255 295 330 349 350 355 357 359 1 7 8 13 19 23 29 31 31 29 29 32 33 34 34 34 36 39 38 37 38
250 263 268 189 189 192 209 229 212 207 197 190 189 213 217 213 250 299 326 332 337 341 345 353 3 3 10 22 28 31 29 26 26 28 31 33 34 32 32 36 40 41 41 40
241 266 257 147 159 175 203 241 197 197 192 185 189 205 166 166 210 268 307 324 333 336 344 358 7 1 9 24 30 31 28 27 28 30 32 34 34 32 34 39 42 46 45 41
239 257 263 141 151 167 206 252 168 186 187 186 195 190 128 159 197 255 301 322 328 334 349 358 358 359 13 27 34 34 34 36 34 34 37 35 34 36 40 44 46 48 50 48
216 233 249 151 164 197 220 119 169 181 184 187 190 177 171 188 204 232 284 326 335 340 358 5 4 6 30 40 43 46 51 50 44 39 36 37 38 37 39 41 45 47 48 49
220 241 74 178 194 206 202 182 179 181 183 184 187 190 193 199 204 215 258 311 332 339 350 21 34 18 35 59 67 70 68 63 56 53 48 41 39 39 39 40 40 40 42 43
249 251 226 210 215 210 206 199 186 184 181 185 189 191 193 198 200 205 222 252 291 306 351 48 52 50 52 81 109 95 79 73 68 62 57 51 40 36 38 32 34 37 36 36
244 250 224 220 216 210 203 200 188 186 186 188 190 192 193 197 199 202 206 214 235 264 326 40 97 109 103 123 150 128 105 98 85 74 61 53 54 39 34 44 30 19 25 26
233 220 208 209 204 202 199 198 193 187 188 191 194 194 195 198 196 198 202 205 209 211 222 212 173 153 147 167 202 186 135 118 107 102 89 60 60 86 79 54 60 45 28 16
244 194 207 182 191 194 197 197 194 193 191 190 195 197 197 197 195 197 202 208 210 207 214 213 200 191 175 183 206 216 192 170 169 178 163 154 33 25 72 134 143 93 58 40
218 197 204 209 201 194 197 196 194 196 196 195 195 195 198 198 197 201 206 207 207 209 213 212 209 200 188 193 206 215 208 188 201 203 220 228 270 343 4 7 42 93 109 85
213 214 221 209 196 190 193 193 195 198 198 197 195 195 197 200 202 205 205 204 207 212 213 212 212 204 193 203 213 214 210 207 208 213 219 228 234 250 272 302 345 21 81 128
211 212 219 216 206 194 193 196 200 201 199 198 198 200 201 203 205 204 201 202 209 213 211 212 214 204 197 208 217 219 214 204 226 225 223 224 228 238 250 262 281 295 312 53
204 207 210 214 211 204 201 202 205 204 202 202 202 201 200 200 203 204 204 206 215 221 218 219 217 205 205 216 223 227 225 206 205 231 233 234 237 241 246 251 260 263 244 136
230 229 218 214 209 206 206 206 208 209 206 204 202 201 201 202 206 208 207 205 211 220 223 223 218 210 211 218 226 234 229 226 221 227 230 232 238 240 242 243 245 245 231 182
242 238 232 224 217 211 208 207 208 209 207 203 202 203 205 208 211 211 206 204 210 219 221 215 202 214 215 214 220 227 233 231 228 228 230 224 233 239 237 239 240 238 233 222
257 244 235 226 217 213 211 207 206 207 206 203 203 205 207 209 210 210 208 211 216 220 214 197 197 211 217 210 203 229 232 233 234 234 232 235 236 239 237 237 239 239 233 229
279 256 239 229 220 215 213 207 203 204 203 202 205 207 209 209 209 209 210 218 223 217 210 194 208 213 214 204 200 227 231 234 235 237 236 236 240 241 241 238 235 236 236 233
306 283 257 240 227 220 214 211 207 205 201 201 205 208 209 210 208 210 214 221 222 186 194 203 212 211 203 197 215 223 229 234 237 239 240 242 243 245 244 243 240 238 237 235
330 317 295 266 245 234 219 213 209 206 203 202 203 206 209 210 208 208 216 215 213 190 198 208 202 186 185 207 222 224 228 233 237 239 240 243 244 245 247 247 244 241 238 236
349 343 333 316 286 252 232 221 213 208 205 204 206 207 208 208 210 213 221 184 185 184 203 202 190 190 198 217 223 226 230 232 235 240 242 243 244 245 245 245 245 242 240 238
358 357 356 352 341 323 298 264 219 205 201 199 199 200 206 208 209 200 199 197 185 189 204 198 197 200 208 220 223 227 230 232 234 237 240 243 245 246 247 246 245 246 243 240
358 359 359 1 0 351 344 335 309 233 199 192 188 187 191 193 198 192 191 193 194 196 206 202 197 201 214 221 224 229 233 232 229 232 239 243 246 246 248 248 249 247 247 244
350 352 353 356 359 358 355 354 352 352 343 297 210 180 181 181 183 188 192 192 191 197 204 207 208 210 215 217 222 227 231 234 236 236 238 240 243 245 247 249 250 250 249 247
Height
1570 1572 1572 1574 1575 1576 1575 1573 1573 1574 1576 1576 1577 1579 1579 1579 1577 1575 1573 1571 1568 1565 1562 1558 1555 1551 1547 1544 1540 1537 1534 1530 1527 1525 1523 1520 1518 1517 1515 1513 1512 1511 1510 1510
1572 1573 1573 1573 1573 1574 1575 1574 1573 1574 1575 1574 1577 1578 1578 1577 1577 1575 1573 1571 1569 1566 1563 1560 1557 1554 1550 1547 1543 1540 1537 1534 1531 1528 1526 1523 1521 1520 1518 1517 1515 1514 1513 1512
1567 1571 1572 1568 1563 1568 1569 1569 1570 1571 1570 1573 1575 1576 1577 1577 1576 1575 1573 1572 1569 1567 1564 1561 1559 1555 1552 1549 1546 1543 1540 1537 1534 1532 1529 1527 1525 1523 1521 1520 1518 1517 1515 1514
1566 1570 1571 1560 1561 1562 1565 1565 1566 1567 1569 1572 1574 1575 1576 1576 1575 1574 1573 1571 1569 1567 1565 1562 1560 1557 1554 1551 1548 1546 1543 1540 1537 1535 1533 1530 1528 1526 1524 1523 1521 1519 1518 1517
1565 1563 1559 1559 1560 1562 1563 1562 1562 1564 1568 1571 1573 1574 1573 1574 1574 1574 1573 1571 1569 1567 1565 1563 1560 1558 1556 1553 1551 1548 1545 1543 1540 1538 1536 1533 1531 1529 1527 1525 1523 1522 1520 1519
1566 1566 1559 1553 1555 1559 1562 1559 1556 1560 1564 1568 1571 1569 1569 1572 1573 1572 1571 1570 1568 1567 1565 1563 1561 1559 1557 1555 1552 1550 1547 1545 1543 1541 1539 1536 1534 1532 1530 1528 1526 1525 1523 1521
1563 1561 1550 1550 1555 1560 1562 1551 1552 1556 1560 1564 1567 1566 1569 1571 1571 1571 1570 1569 1568 1566 1565 1563 1561 1559 1558 1556 1553 1551 1549 1547 1545 1543 1541 1539 1537 1534 1533 1531 1529 1527 1526 1524
1559 1560 1553 1550 1554 1553 1548 1549 1551 1554 1558 1562 1565 1567 1568 1569 1570 1570 1570 1568 1567 1566 1565 1563 1561 1560 1559 1556 1554 1552 1550 1549 1547 1545 1543 1541 1539 1537 1536 1534 1532 1531 1529 1528
1548 1545 1543 1545 1545 1546 1547 1548 1550 1553 1556 1560 1563 1565 1567 1568 1569 1569 1568 1568 1566 1565 1564 1563 1561 1560 1559 1557 1555 1554 1552 1550 1549 1547 1546 1544 1542 1540 1539 1537 1535 1534 1532 1531
1543 1538 1540 1542 1543 1544 1545 1547 1549 1551 1554 1558 1560 1563 1565 1566 1567 1567 1567 1566 1566 1565 1564 1563 1561 1560 1559 1557 1556 1555 1554 1552 1551 1550 1548 1547 1545 1543 1541 1540 1538 1537 1535 1534
1537 1533 1536 1535 1536 1539 1542 1544 1547 1549 1552 1555 1558 1560 1562 1564 1565 1565 1565 1565 1564 1564 1563 1562 1561 1560 1559 1558 1557 1556 1555 1554 1553 1551 1550 1549 1547 1545 1544 1542 1540 1539 1537 1536
1528 1526 1527 1528 1529 1533 1537 1540 1543 1546 1549 1552 1555 1557 1560 1561 1562 1563 1564 1564 1563 1563 1562 1562 1561 1560 1559 1557 1557 1557 1556 1555 1554 1553 1552 1551 1549 1548 1546 1544 1543 1541 1539 1538
1523 1523 1524 1525 1526 1528 1531 1536 1539 1543 1546 1549 1552 1554 1556 1558 1559 1560 1561 1561 1562 1561 1561 1560 1560 1559 1558 1557 1556 1556 1556 1555 1554 1553 1553 1552 1551 1550 1549 1547 1545 1543 1541 1540
1519 1521 1522 1522 1523 1524 1528 1532 1536 1539 1542 1545 1548 1550 1553 1555 1556 1557 1558 1559 1559 1559 1559 1559 1558 1558 1557 1556 1555 1555 1555 1554 1554 1553 1553 1552 1551 1550 1549 1548 1547 1545 1543 1541
1513 1516 1518 1519 1520 1521 1524 1528 1531 1534 1538 1541 1543 1546 1548 1550 1552 1553 1555 1555 1556 1556 1556 1556 1556 1556 1555 1554 1554 1554 1554 1553 1553 1553 1552 1552 1551 1550 1549 1548 1547 1546 1544 1542
1508 1510 1512 1514 1515 1517 1519 1522 1525 1528 1532 1535 1538 1540 1543 1546 1548 1549 1550 1552 1553 1553 1554 1554 1553 1553 1553 1552 1552 1552 1552 1551 1551 1551 1551 1551 1550 1550 1549 1548 1547 1546 1545 1543
1504 1504 1505 1507 1509 1511 1513 1516 1519 1523 1526 1529 1532 1535 1538 1541 1543 1544 1546 1547 1549 1550 1550 1550 1550 1550 1550 1550 1550 1550 1549 1549 1549 1549 1549 1549 1549 1548 1548 1547 1546 1546 1544 1542
1497 1498 1499 1500 1502 1505 1507 1510 1513 1516 1520 1523 1527 1530 1532 1534 1537 1539 1541 1542 1544 1545 1546 1546 1546 1546 1546 1546 1546 1546 1546 1546 1546 1547 1547 1546 1546 1546 1546 1545 1545 1544 1543 1541
1490 1492 1494 1495 1497 1499 1501 1503 1506 1510 1513 1517 1520 1522 1525 1528 1531 1534 1536 1537 1538 1540 1541 1541 1542 1542 1542 1542 1542 1542 1543 1543 1543 1543 1543 1543 1543 1543 1543 1543 1542 1542 1541 1540
1484 1485 1487 1489 1491 1493 1495 1497 1500 1503 1506 1509 1512 1516 1519 1522 1525 1528 1529 1531 1532 1534 1536 1536 1537 1537 1538 1538 1538 1538 1538 1539 1539 1540 1540 1540 1540 1540 1540 1540 1539 1539 1539 1538
1481 1481 1481 1483 1485 1487 1489 1491 1493 1496 1499 1502 1505 1508 1512 1515 1518 1520 1522 1524 1526 1528 1529 1530 1531 1532 1532 1533 1533 1533 1534 1534 1534 1535 1535 1536 1536 1536 1536 1536 1536 1536 1535 1535
1479 1478 1478 1479 1480 1481 1483 1486 1487 1490 1492 1495 1498 1502 1505 1508 1511 1513 1515 1518 1520 1522 1523 1524 1525 1526 1527 1527 1528 1528 1529 1529 1529 1530 1530 1531 1531 1531 1532 1532 1532 1532 1531 1531
1479 1477 1476 1476 1477 1478 1479 1480 1482 1484 1486 1488 1491 1495 1498 1501 1504 1506 1508 1511 1513 1515 1516 1518 1519 1520 1521 1522 1522 1523 1524 1524 1524 1525 1525 1525 1526 1526 1526 1527 1527 1527 1527 1527
1479 1477 1475 1474 1474 1475 1475 1475 1477 1479 1481 1483 1486 1489 1492 1495 1497 1499 1502 1504 1506 1508 1510 1511 1513 1514 1515 1516 1517 1517 1518 1519 1519 1519 1520 1520 1520 1520 1521 1521 1521 1522 1522 1522
1481 1479 1476 1474 1474 1473 1473 1473 1474 1475 1476 1478 1480 1483 1486 1488 1491 1493 1495 1497 1500 1502 1504 1505 1506 1507 1508 1509 1511 1512 1512 1513 1513 1514 1514 1514 1514 1515 1515 1515 1516 1516 1516 1516
1484 1482 1479 1477 1475 1473 1472 1472 1472 1472 1473 1475 1476 1478 1480 1483 1485 1487 1489 1491 1494 1496 1497 1499 1500 1501 1502 1503 1504 1505 1506 1507 1507 1508 1508 1509 1509 1509 1509 1509 1510 1510 1510 1510
1485 1484 1481 1479 1477 1475 1474 1472 1472 1471 1471 1472 1473 1475 1476 1478 1480 1482 1484 1486 1488 1490 1491 1493 1494 1495 1496 1497 1498 1499 1500 1501 1501 1502 1502 1503 1503 1503 1503 1503 1503 1504 1504 1504